SCP
0 0 0 -0 -0 -0 -0 -0 -0 -0 -0 -0 -0 -0 -0 -0 -0 0 0 0 0 0 0 0 0 0 -0 -0 -0 -0 -0 -0 -0 -0 -0 -0 -0 -0 -0 -0 -0 -0 -0
0 0 0 -0 -0 -0 -0 -0 -0 -0 -0 -0 -0 -0 -0 -0 0 0 0 0 0 0 0 0 0 0 0 -0 -0 -0 -0 -0 -0 -0 -0 -0 -0 -0 -0 -0 -0 -0 -0
0 0 0 0 -0 -0 -0 -0 -0 0 0 -0 -0 -0 0 0 0 0 0 0 0 0 0 0 0 0 0 0 -0 -0 -0 -0 -0 -0 -0 -0 -0 -0 -0 -0 -0 -0 -0
0 0 0 0 -0 0 0 0 0 0 0 0 0 0 0 0 0 0 0 0 0 0 0 0 0 0 0 0 0 0 0 -0 -0 -0 -0 -0 -0 -0 -0 -0 -0 -0 -0
0 0 0 0 0 0 0 0 0 0 0 0 0 0 0 0 0 0 0 0 0 0 0 0 0 0 0 0 0 0 -0 -0 -0 -0 0 0 0 -0 -0 -0 -0 -0 -0
0 0 0 0 0 0 0 0 0 0 0 0 0 0 0 0 0 0 0 0 0 0 0 0 0 0 0 0 0 0 -0 -0 0 0 0 -0 0 -0 -0 -0 0 0 0
0 0 0 0 0 0 0 0 0 0 0 0 0 0 0 0 0 0 0 0 0 0 0 0 0 0 0 0 0 0 -0 0 0 0 0 0 0 -0 -0 -0 0 -0 -0
0 0 0 0 0 0 0 0 0 0 0 0 0 0 0 0 0 0 0 0 0 0 0 0 0 0 0 0 0 0 0 0 0 0 0 0 0 -0 -0 -0 -0 -0 -0
0 0 0 0 0 0 0 0 0 0 0 0 0 0 0 0 0 0 0 0 0 0 0 0 0 0 0 0 0 0 0 0 0 0 0 0 0 -0 -0 -0 -0 -0 -0
0 0 0 0 0 0 0 0 0 0 0 0 0 0 0 0 0 0 0 0 0 0 0 0 0 0 0 0 0 0 0 0 0 0 0 0 0 0 0 0 -0 -0 0
0 0 0 0 0 0 0 0 0 0 0 0 0 0 0 0 0 0 0 0 0 0 0 0 0 0 0 0 0 0 0 0 0 0 0 0 0 0 0 -0 -0 -0 0
0 0 0 0 0 0 0 0 0 0 0 0 0 0 0 0 0 0 0 0 0 0 0 0 0 0 0 0 0 0 0 0 0 0 0 0 0 0 0 0 0 0 0
0 0 0 0 0 0 0 0 1 1 1 0 0 0 0 0 0 0 0 0 0 0 0 0 0 0 0 0 0 0 0 0 0 0 0 0 0 0 0 0 0 0 0
0 0 0 0 0 0 0 1 1 0 1 1 0 0 0 0 0 0 0 0 0 0 0 0 0 0 0 0 0 0 0 0 0 0 0 0 0 0 0 0 0 0 0
0 0 0 0 0 0 0 0 0 1 1 1 0 0 0 0 0 0 0 0 0 0 0 0 0 0 0 0 0 0 0 0 0 0 0 0 0 0 0 0 0 0 0
0 0 0 0 0 0 0 0 0 0 0 1 0 0 0 0 0 0 0 0 0 0 0 0 0 0 0 0 0 0 0 0 0 0 0 0 0 0 0 0 0 0 0
0 0 0 0 0 0 0 0 0 0 0 0 1 0 0 0 0 0 0 0 0 0 0 0 0 0 0 0 0 0 0 0 0 0 0 0 0 0 0 0 0 0 0
0 0 0 0 0 0 0 0 0 0 0 1 1 1 0 0 0 0 0 0 0 0 0 0 0 0 0 0 0 0 0 0 0 0 0 0 0 0 0 0 0 0 0
0 0 0 0 0 0 0 0 0 0 0 0 1 1 1 1 0 0 0 0 0 0 0 0 0 0 0 0 0 0 0 0 0 0 0 0 0 0 0 0 0 0 0
0 0 0 0 0 0 0 0 0 0 0 0 0 0 1 1 0 0 0 0 0 0 0 0 0 0 0 0 0 0 0 0 0 0 0 0 0 0 0 0 0 0 0
0 0 0 0 0 0 0 0 0 0 0 0 0 0 0 0 0 0 0 0 0 0 0 0 0 0 0 0 0 0 0 0 0 0 0 0 0 0 0 0 0 0 0
0 0 0 0 0 0 0 0 0 0 0 0 0 0 0 0 0 0 0 0 0 0 0 0 0 0 0 0 0 0 0 0 0 0 0 0 0 0 0 0 0 0 0
0 0 0 0 0 0 0 0 0 0 0 0 0 0 0 0 0 0 0 0 0 0 0 0 0 0 0 0 0 0 0 0 0 0 0 0 0 0 0 0 0 0 0
0 0 0 0 0 0 0 0 0 0 0 0 0 0 0 0 0 0 0 0 0 0 0 0 0 0 0 0 0 0 0 0 0 0 0 0 0 0 0 0 0 0 0
0 0 0 0 0 0 0 0 0 0 0 0 0 0 0 0 0 0 0 0 0 0 0 0 0 0 0 0 0 0 0 0 0 0 0 0 0 0 0 0 0 0 0
0 0 0 0 0 0 0 0 0 0 0 0 0 0 0 0 0 0 0 0 0 0 0 0 0 0 0 0 0 0 0 0 0 0 0 0 0 0 0 0 0 0 0
Wind_Speed_500mb
11 29 47 45 40 34 32 30 31 30 28 26 24 25 23 23 26 26 21 18 16 14 17 27 26 26 30 32 34 37 41 44 42 45 50 46 42 43 51 54 53 49 43
9 27 41 45 41 35 31 26 25 27 27 25 25 30 33 26 23 24 22 22 18 19 27 26 26 27 29 33 38 46 43 42 48 48 44 40 47 53 51 46 44 39 33
8 22 36 43 39 37 34 30 28 27 26 25 22 24 29 28 29 27 22 21 19 29 32 32 29 30 33 36 46 46 46 45 46 46 42 50 51 50 44 39 35 29 25
7 18 31 38 39 37 33 31 27 26 22 23 24 28 28 26 24 22 22 25 27 29 33 34 33 31 34 38 43 43 44 42 41 40 51 52 50 46 39 31 23 19 20
6 13 27 32 36 37 36 33 28 24 19 18 23 24 25 27 26 24 26 29 27 29 31 31 34 37 38 41 41 41 44 38 44 54 57 52 47 41 28 20 15 14 16
5 12 21 29 34 35 34 31 29 27 22 20 20 24 26 28 29 29 29 34 32 31 32 31 35 38 38 46 40 41 42 43 54 53 55 48 37 30 23 14 10 10 11
5 10 14 24 30 32 32 29 28 27 27 24 22 20 28 27 29 31 31 35 33 34 36 35 40 41 43 49 44 42 42 45 45 48 41 35 31 26 18 9 6 5 10
13 14 15 16 26 29 31 32 32 32 32 28 27 23 28 32 31 32 34 36 36 36 38 39 45 45 50 51 50 47 44 47 38 43 38 35 31 25 15 8 2 8 12
15 19 22 20 23 30 34 35 36 37 38 35 32 28 24 33 35 36 37 36 39 37 39 41 41 51 52 49 48 52 46 45 38 44 42 39 34 22 17 14 4 10 12
13 20 24 28 29 32 35 37 40 41 43 41 38 34 31 29 40 39 40 37 40 41 40 42 43 53 51 49 47 50 48 46 41 38 41 39 29 18 20 12 5 10 9
13 16 24 29 33 37 41 42 41 41 45 46 44 41 38 37 45 46 45 46 39 43 41 41 45 53 53 55 51 50 51 45 43 38 48 39 27 27 24 19 11 11 6
23 25 27 28 34 39 45 47 48 51 52 52 51 49 47 47 47 53 51 52 49 49 44 45 47 49 58 57 56 56 49 48 45 40 41 41 36 28 20 21 18 15 12
33 33 32 33 36 44 49 51 56 58 61 62 61 58 58 57 56 57 60 59 57 57 52 57 55 58 58 61 61 59 56 60 49 47 45 41 27 29 27 22 18 16 19
37 38 36 37 40 42 45 54 62 65 67 73 75 71 68 70 67 67 66 66 67 65 58 64 64 64 59 56 56 62 62 59 57 55 50 43 36 27 22 21 17 25 30
47 43 43 45 48 49 50 50 55 61 67 74 77 84 83 83 77 74 72 69 75 74 70 69 66 62 61 53 52 62 66 66 64 58 53 49 40 31 22 21 27 30 31
46 47 48 52 53 56 60 60 59 55 59 66 73 77 78 100 90 83 80 79 79 79 81 79 78 74 65 56 57 62 68 67 59 57 56 54 39 31 21 27 37 34 33
21 25 28 33 37 43 50 58 62 63 60 61 63 66 82 85 90 80 91 88 87 82 91 84 82 78 73 65 65 71 78 68 66 66 65 53 42 29 25 35 38 35 31
31 36 36 34 32 36 38 39 45 54 54 58 61 63 61 70 93 98 111 96 96 82 94 95 89 88 84 76 73 80 73 72 84 82 65 51 40 32 36 35 43 40 32
26 29 28 34 32 29 34 39 41 43 48 49 50 56 60 64 67 83 112 104 108 98 102 103 99 95 95 86 80 79 69 66 73 69 50 47 40 39 43 42 42 44 36
28 29 28 28 33 37 39 39 40 44 45 48 51 50 49 55 58 71 66 93 111 112 101 112 101 93 105 100 93 86 77 71 69 66 56 52 47 47 50 52 53 52 39
34 35 34 34 39 40 40 41 39 39 45 46 50 51 57 63 57 55 57 66 75 110 109 114 113 109 91 116 100 91 86 83 81 75 70 65 61 59 52 53 61 55 45
40 44 41 40 40 37 38 40 44 43 51 57 59 64 62 58 59 59 57 59 70 66 101 102 101 96 109 118 113 105 79 83 94 91 85 76 72 67 59 60 57 56 51
42 46 46 42 38 40 50 61 68 71 77 80 76 74 82 80 74 67 61 54 57 61 71 110 130 126 125 120 112 93 55 37 82 97 94 87 82 76 70 71 59 59 54
44 47 53 55 61 68 77 79 81 88 92 96 97 91 87 86 90 89 79 71 63 60 62 72 106 128 125 119 106 103 94 73 78 45 89 92 88 84 76 78 72 69 62
50 51 60 71 82 93 99 94 87 90 93 96 96 99 99 97 98 96 91 90 81 71 68 64 83 120 127 133 120 116 92 93 95 88 75 94 90 89 84 83 79 77 71
60 63 68 73 80 86 88 88 88 90 90 91 95 100 101 100 103 102 97 89 87 82 79 68 71 90 107 133 141 127 120 118 99 93 75 103 105 96 94 89 85 83 77
Wind_Direction_500mb
193 180 183 183 187 197 201 210 210 214 219 223 217 208 206 206 200 212 221 223 218 207 172 165 151 147 144 145 143 136 130 126 122 118 113 116 118 120 123 126 123 115 114
183 180 182 185 191 197 204 212 221 225 233 233 226 202 192 204 206 211 215 213 211 187 166 159 156 145 151 146 138 125 118 120 120 120 124 127 130 128 129 126 121 114 106
142 178 184 184 193 196 207 211 224 234 242 235 224 182 180 190 203 209 197 185 181 166 168 165 157 151 149 143 132 133 134 131 132 135 134 134 131 134 133 135 119 107 96
140 176 185 187 191 201 210 221 231 243 241 226 199 182 176 182 181 184 180 171 174 173 170 171 164 156 145 142 141 142 143 143 148 144 139 137 136 140 137 121 113 87 62
167 176 192 197 199 203 208 223 229 227 230 230 211 200 192 188 187 183 181 170 177 174 173 171 166 157 154 148 143 146 147 145 140 149 137 137 138 138 139 130 110 68 42
210 188 196 203 208 212 217 222 223 221 227 233 234 225 201 192 190 185 183 173 180 180 174 178 167 158 162 152 148 149 149 147 154 152 152 148 141 141 154 134 92 61 25
205 206 209 216 217 219 222 225 226 231 233 236 239 234 200 205 195 196 191 180 186 183 178 180 166 168 156 150 150 149 155 159 162 156 159 161 155 158 150 133 97 25 356
188 198 215 229 232 232 234 233 229 233 239 240 241 239 207 199 202 202 202 189 192 189 187 181 173 172 164 160 162 165 165 165 169 174 176 163 155 160 166 184 116 337 342
211 209 218 224 226 231 240 242 240 240 243 242 242 243 241 204 208 209 206 196 195 195 195 191 185 175 177 170 175 171 175 183 181 190 175 162 160 180 192 200 220 311 327
240 224 225 232 237 235 237 243 245 247 248 249 245 246 242 227 212 212 213 200 204 201 204 198 187 180 181 181 185 177 177 187 191 191 176 166 173 204 197 205 242 305 308
281 258 251 252 246 241 241 244 246 250 249 250 249 250 242 231 217 216 214 202 211 209 210 208 192 187 188 192 187 185 185 190 196 205 196 183 195 200 214 220 259 302 259
256 261 255 253 254 256 252 249 245 245 246 251 246 241 242 242 227 219 218 208 205 207 212 210 193 194 197 196 188 189 193 194 198 201 203 190 205 204 223 240 259 268 205
246 249 253 251 247 246 252 255 250 246 248 244 248 246 238 241 238 226 217 212 208 207 212 197 197 201 204 200 193 192 198 196 200 205 197 202 199 201 224 247 258 226 169
263 252 248 254 254 251 251 248 245 250 247 247 246 245 241 236 237 233 227 216 211 204 201 197 206 203 204 201 209 195 200 202 208 206 198 195 206 217 227 245 239 160 145
273 269 264 260 261 263 263 258 254 250 250 253 251 249 243 238 236 237 232 225 216 205 199 204 206 202 199 201 208 208 204 210 207 209 195 188 199 190 212 258 167 156 151
268 265 262 258 255 253 258 263 263 260 258 256 254 258 256 247 234 237 234 229 223 209 204 207 206 206 206 202 209 206 206 210 214 206 214 193 193 185 203 254 163 159 159
275 272 272 270 267 263 261 259 260 259 258 259 260 257 257 254 255 241 239 233 228 216 206 211 215 209 206 206 215 210 205 211 217 208 201 207 200 212 233 255 168 173 168
284 280 270 267 270 267 266 268 264 262 262 257 253 256 258 254 249 240 235 237 233 221 207 212 215 212 207 206 211 209 209 215 208 195 193 201 206 223 237 221 179 184 175
303 304 287 264 258 261 264 267 264 261 264 265 267 261 260 254 253 245 237 233 232 227 210 214 215 216 209 206 207 210 213 214 205 194 200 207 214 233 240 209 204 193 183
290 297 284 268 258 260 263 261 262 264 259 261 260 259 265 269 264 250 255 236 231 230 218 213 217 219 215 206 206 207 209 210 208 212 217 214 217 226 239 219 207 209 208
283 278 276 262 254 260 263 265 265 270 273 270 272 272 262 255 262 265 255 245 234 234 226 212 218 216 207 207 203 201 200 205 209 214 218 213 217 218 230 230 212 218 225
275 270 265 258 255 263 267 270 268 272 277 274 272 274 273 268 259 255 255 252 247 239 229 224 209 207 206 213 202 196 189 195 198 203 210 210 213 218 227 226 223 225 227
284 272 264 262 265 274 285 284 283 280 279 279 275 272 271 270 267 261 258 254 251 248 243 215 221 210 210 212 205 199 184 195 194 198 200 206 211 219 220 219 226 227 233
301 272 265 266 268 278 289 289 285 282 279 278 277 274 266 264 264 261 259 255 250 256 259 241 209 200 214 214 200 203 205 204 185 190 199 203 210 214 218 218 225 226 234
307 291 281 277 277 276 279 285 284 279 275 276 274 269 265 260 258 258 259 258 253 247 252 258 240 211 215 218 222 207 203 208 205 200 197 202 206 211 213 220 224 227 230
311 304 296 290 286 284 284 284 282 280 279 278 275 272 269 266 259 256 257 258 257 251 242 248 240 227 216 219 223 218 210 202 202 201 199 204 206 211 215 218 224 228 229
Wind_Speed_850mb
11 29 47 45 40 34 32 30 31 30 28 26 24 25 23 23 26 26 21 18 16 14 17 27 26 26 30 32 34 37 41 44 42 45 50 46 42 43 51 54 53 49 43
9 27 41 45 41 35 31 26 25 27 27 25 25 30 33 26 23 24 22 22 18 19 27 26 26 27 29 33 38 46 43 42 48 48 44 40 47 53 51 46 44 39 33
8 22 36 43 39 37 34 30 28 27 26 25 22 24 29 28 29 27 22 21 19 29 32 32 29 30 33 36 46 46 46 45 46 46 42 50 51 50 44 39 35 29 25
7 18 31 38 39 37 33 31 27 26 22 23 24 28 28 26 24 22 22 25 27 29 33 34 33 31 34 38 43 43 44 42 41 40 51 52 50 46 39 31 23 19 20
6 13 27 32 36 37 36 33 28 24 19 18 23 24 25 27 26 24 26 29 27 29 31 31 34 37 38 41 41 41 44 38 44 54 57 52 47 41 28 20 15 14 16
5 12 21 29 34 35 34 31 29 27 22 20 20 24 26 28 29 29 29 34 32 31 32 31 35 38 38 46 40 41 42 43 54 53 55 48 37 30 23 14 10 10 11
5 10 14 24 30 32 32 29 28 27 27 24 22 20 28 27 29 31 31 35 33 34 36 35 40 41 43 49 44 42 42 45 45 48 41 35 31 26 18 9 6 5 10
13 14 15 16 26 29 31 32 32 32 32 28 27 23 28 32 31 32 34 36 36 36 38 39 45 45 50 51 50 47 44 47 38 43 38 35 31 25 15 8 2 8 12
15 19 22 20 23 30 34 35 36 37 38 35 32 28 24 33 35 36 37 36 39 37 39 41 41 51 52 49 48 52 46 45 38 44 42 39 34 22 17 14 4 10 12
13 20 24 28 29 32 35 37 40 41 43 41 38 34 31 29 40 39 40 37 40 41 40 42 43 53 51 49 47 50 48 46 41 38 41 39 29 18 20 12 5 10 9
13 16 24 29 33 37 41 42 41 41 45 46 44 41 38 37 45 46 45 46 39 43 41 41 45 53 53 55 51 50 51 45 43 38 48 39 27 27 24 19 11 11 6
23 25 27 28 34 39 45 47 48 51 52 52 51 49 47 47 47 53 51 52 49 49 44 45 47 49 58 57 56 56 49 48 45 40 41 41 36 28 20 21 18 15 12
33 33 32 33 36 44 49 51 56 58 61 62 61 58 58 57 56 57 60 59 57 57 52 57 55 58 58 61 61 59 56 60 49 47 45 41 27 29 27 22 18 16 19
37 38 36 37 40 42 45 54 62 65 67 73 75 71 68 70 67 67 66 66 67 65 58 64 64 64 59 56 56 62 62 59 57 55 50 43 36 27 22 21 17 25 30
47 43 43 45 48 49 50 50 55 61 67 74 77 84 83 83 77 74 72 69 75 74 70 69 66 62 61 53 52 62 66 66 64 58 53 49 40 31 22 21 27 30 31
46 47 48 52 53 56 60 60 59 55 59 66 73 77 78 100 90 83 80 79 79 79 81 79 78 74 65 56 57 62 68 67 59 57 56 54 39 31 21 27 37 34 33
21 25 28 33 37 43 50 58 62 63 60 61 63 66 82 85 90 80 91 88 87 82 91 84 82 78 73 65 65 71 78 68 66 66 65 53 42 29 25 35 38 35 31
31 36 36 34 32 36 38 39 45 54 54 58 61 63 61 70 93 98 111 96 96 82 94 95 89 88 84 76 73 80 73 72 84 82 65 51 40 32 36 35 43 40 32
26 29 28 34 32 29 34 39 41 43 48 49 50 56 60 64 67 83 112 104 108 98 102 103 99 95 95 86 80 79 69 66 73 69 50 47 40 39 43 42 42 44 36
28 29 28 28 33 37 39 39 40 44 45 48 51 50 49 55 58 71 66 93 111 112 101 112 101 93 105 100 93 86 77 71 69 66 56 52 47 47 50 52 53 52 39
34 35 34 34 39 40 40 41 39 39 45 46 50 51 57 63 57 55 57 66 75 110 109 114 113 109 91 116 100 91 86 83 81 75 70 65 61 59 52 53 61 55 45
40 44 41 40 40 37 38 40 44 43 51 57 59 64 62 58 59 59 57 59 70 66 101 102 101 96 109 118 113 105 79 83 94 91 85 76 72 67 59 60 57 56 51
42 46 46 42 38 40 50 61 68 71 77 80 76 74 82 80 74 67 61 54 57 61 71 110 130 126 125 120 112 93 55 37 82 97 94 87 82 76 70 71 59 59 54
44 47 53 55 61 68 77 79 81 88 92 96 97 91 87 86 90 89 79 71 63 60 62 72 106 128 125 119 106 103 94 73 78 45 89 92 88 84 76 78 72 69 62
50 51 60 71 82 93 99 94 87 90 93 96 96 99 99 97 98 96 91 90 81 71 68 64 83 120 127 133 120 116 92 93 95 88 75 94 90 89 84 83 79 77 71
60 63 68 73 80 86 88 88 88 90 90 91 95 100 101 100 103 102 97 89 87 82 79 68 71 90 107 133 141 127 120 118 99 93 75 103 105 96 94 89 85 83 77
Wind_Direction_850mb
193 180 183 183 187 197 201 210 210 214 219 223 217 208 206 206 200 212 221 223 218 207 172 165 151 147 144 145 143 136 130 126 122 118 113 116 118 120 123 126 123 115 114
183 180 182 185 191 197 204 212 221 225 233 233 226 202 192 204 206 211 215 213 211 187 166 159 156 145 151 146 138 125 118 120 120 120 124 127 130 128 129 126 121 114 106
142 178 184 184 193 196 207 211 224 234 242 235 224 182 180 190 203 209 197 185 181 166 168 165 157 151 149 143 132 133 134 131 132 135 134 134 131 134 133 135 119 107 96
140 176 185 187 191 201 210 221 231 243 241 226 199 182 176 182 181 184 180 171 174 173 170 171 164 156 145 142 141 142 143 143 148 144 139 137 136 140 137 121 113 87 62
167 176 192 197 199 203 208 223 229 227 230 230 211 200 192 188 187 183 181 170 177 174 173 171 166 157 154 148 143 146 147 145 140 149 137 137 138 138 139 130 110 68 42
210 188 196 203 208 212 217 222 223 221 227 233 234 225 201 192 190 185 183 173 180 180 174 178 167 158 162 152 148 149 149 147 154 152 152 148 141 141 154 134 92 61 25
205 206 209 216 217 219 222 225 226 231 233 236 239 234 200 205 195 196 191 180 186 183 178 180 166 168 156 150 150 149 155 159 162 156 159 161 155 158 150 133 97 25 356
188 198 215 229 232 232 234 233 229 233 239 240 241 239 207 199 202 202 202 189 192 189 187 181 173 172 164 160 162 165 165 165 169 174 176 163 155 160 166 184 116 337 342
211 209 218 224 226 231 240 242 240 240 243 242 242 243 241 204 208 209 206 196 195 195 195 191 185 175 177 170 175 171 175 183 181 190 175 162 160 180 192 200 220 311 327
240 224 225 232 237 235 237 243 245 247 248 249 245 246 242 227 212 212 213 200 204 201 204 198 187 180 181 181 185 177 177 187 191 191 176 166 173 204 197 205 242 305 308
281 258 251 252 246 241 241 244 246 250 249 250 249 250 242 231 217 216 214 202 211 209 210 208 192 187 188 192 187 185 185 190 196 205 196 183 195 200 214 220 259 302 259
256 261 255 253 254 256 252 249 245 245 246 251 246 241 242 242 227 219 218 208 205 207 212 210 193 194 197 196 188 189 193 194 198 201 203 190 205 204 223 240 259 268 205
246 249 253 251 247 246 252 255 250 246 248 244 248 246 238 241 238 226 217 212 208 207 212 197 197 201 204 200 193 192 198 196 200 205 197 202 199 201 224 247 258 226 169
263 252 248 254 254 251 251 248 245 250 247 247 246 245 241 236 237 233 227 216 211 204 201 197 206 203 204 201 209 195 200 202 208 206 198 195 206 217 227 245 239 160 145
273 269 264 260 261 263 263 258 254 250 250 253 251 249 243 238 236 237 232 225 216 205 199 204 206 202 199 201 208 208 204 210 207 209 195 188 199 190 212 258 167 156 151
268 265 262 258 255 253 258 263 263 260 258 256 254 258 256 247 234 237 234 229 223 209 204 207 206 206 206 202 209 206 206 210 214 206 214 193 193 185 203 254 163 159 159
275 272 272 270 267 263 261 259 260 259 258 259 260 257 257 254 255 241 239 233 228 216 206 211 215 209 206 206 215 210 205 211 217 208 201 207 200 212 233 255 168 173 168
284 280 270 267 270 267 266 268 264 262 262 257 253 256 258 254 249 240 235 237 233 221 207 212 215 212 207 206 211 209 209 215 208 195 193 201 206 223 237 221 179 184 175
303 304 287 264 258 261 264 267 264 261 264 265 267 261 260 254 253 245 237 233 232 227 210 214 215 216 209 206 207 210 213 214 205 194 200 207 214 233 240 209 204 193 183
290 297 284 268 258 260 263 261 262 264 259 261 260 259 265 269 264 250 255 236 231 230 218 213 217 219 215 206 206 207 209 210 208 212 217 214 217 226 239 219 207 209 208
283 278 276 262 254 260 263 265 265 270 273 270 272 272 262 255 262 265 255 245 234 234 226 212 218 216 207 207 203 201 200 205 209 214 218 213 217 218 230 230 212 218 225
275 270 265 258 255 263 267 270 268 272 277 274 272 274 273 268 259 255 255 252 247 239 229 224 209 207 206 213 202 196 189 195 198 203 210 210 213 218 227 226 223 225 227
284 272 264 262 265 274 285 284 283 280 279 279 275 272 271 270 267 261 258 254 251 248 243 215 221 210 210 212 205 199 184 195 194 198 200 206 211 219 220 219 226 227 233
301 272 265 266 268 278 289 289 285 282 279 278 277 274 266 264 264 261 259 255 250 256 259 241 209 200 214 214 200 203 205 204 185 190 199 203 210 214 218 218 225 226 234
307 291 281 277 277 276 279 285 284 279 275 276 274 269 265 260 258 258 259 258 253 247 252 258 240 211 215 218 222 207 203 208 205 200 197 202 206 211 213 220 224 227 230
311 304 296 290 286 284 284 284 282 280 279 278 275 272 269 266 259 256 257 258 257 251 242 248 240 227 216 219 223 218 210 202 202 201 199 204 206 211 215 218 224 228 229